Location: Chaumontel
(49.1247°N, 2.4324°E)
Time: 05:24:01
(UTC+00:00)

COSMOS 2428 - Pass Details

Date: 06 August 2024
Orbit: 842 x 857 km, 70.9° (Epoch: 08 September)

Event Time Altitude Azimuth Distance (km) Brightness Sun altitude
Exits shadow 01:17:53 - 132° (SE) 2,585 5.0 -21.8°
Reaches altitude 10° 01:18:29 10° 127° (SE) 2,465 5.0 -21.8°
Maximum altitude 01:21:20 14° 97° (E) 2,182 5.0 -21.6°
Drops below altitude 10° 01:24:12 10° 66° (ENE) 2,480 5.7 -21.4°
Sets 01:27:50 0° 43° (NE) 3,425 7.1 -21.2°
